Temperature
14 14 14 13 13 13 13 12 12 12 12 12 12 12 12 12 12 12 11 11 11 11 11 11 11 11 11 11 11 11 11 10 10 10 10 10 10 10 10 10 10 10 10
13 13 13 13 13 13 12 12 12 12 12 12 12 11 11 11 11 11 11 11 11 11 11 10 10 10 10 10 10 10 10 10 10 10 10 10 10 10 10 10 10 10 10
13 13 13 13 12 12 12 12 12 12 11 11 11 11 11 11 11 11 10 10 10 10 10 10 10 10 10 10 10 10 10 10 10 9 9 9 9 9 10 10 9 10 10
13 13 12 12 12 12 12 11 11 11 11 11 11 11 10 11 10 10 10 10 10 10 10 10 10 10 10 10 9 9 9 9 9 9 9 9 9 9 9 9 9 9 9
13 12 12 12 11 11 11 11 11 11 10 10 10 10 10 10 10 10 10 10 10 10 10 10 10 10 10 9 9 9 9 9 9 9 9 8 8 8 8 8 8 9 9
12 12 12 11 11 11 11 10 10 10 10 10 10 9 9 9 9 9 9 9 9 9 9 9 9 9 9 9 9 9 8 8 8 8 8 8 8 8 8 8 8 8 8
12 11 11 11 10 10 10 10 10 10 10 9 9 9 9 9 9 9 9 9 9 9 9 9 9 9 8 8 8 8 8 8 8 8 8 8 8 8 8 8 8 8 8
11 11 10 10 10 10 10 9 9 9 9 9 9 8 8 8 8 9 8 8 8 8 8 8 8 8 8 8 8 8 8 8 7 7 7 7 7 7 7 7 7 7 7
10 10 10 10 9 9 9 9 9 9 8 8 8 8 8 8 8 8 8 8 8 8 7 7 7 7 7 7 7 7 7 7 7 7 7 7 7 7 7 7 7 7 7
10 10 9 9 9 9 9 8 8 8 8 8 8 8 8 7 7 7 7 7 7 7 7 7 7 7 7 7 7 7 6 6 6 6 6 7 6 6 6 6 7 6 6
9 9 9 9 8 8 8 8 8 7 7 7 7 7 7 7 7 7 7 7 7 6 6 6 6 6 6 6 6 6 6 6 6 6 6 6 6 6 6 6 6 6 6
9 8 8 8 8 7 7 7 7 7 7 6 6 6 6 6 6 6 6 6 6 6 6 6 6 6 5 5 5 5 5 5 5 5 5 5 5 5 6 6 6 6 6
8 8 7 7 7 7 7 7 6 6 6 6 6 6 6 6 6 6 5 5 5 5 5 5 5 5 5 5 5 5 5 5 5 5 5 5 5 5 5 5 5 5 5
7 7 7 7 6 6 6 6 6 6 5 5 5 5 5 5 5 5 5 5 4 4 4 4 4 4 4 4 4 4 4 4 4 4 4 4 4 4 4 5 5 5 5
7 6 6 6 6 6 6 5 5 5 5 5 5 4 4 4 4 4 4 4 4 4 4 4 4 4 4 4 3 4 4 4 4 4 4 4 4 4 4 4 4 4 4
6 6 6 5 5 5 5 5 5 4 4 4 4 4 4 4 4 4 4 3 3 3 3 3 3 3 3 3 3 3 3 3 3 3 3 3 3 3 3 3 3 3 4
6 5 5 5 5 5 4 4 4 4 4 4 4 3 3 3 3 3 3 3 3 3 3 3 3 3 3 3 3 3 3 3 3 3 3 3 3 2 3 3 3 3 3
5 5 5 4 4 4 4 4 3 3 3 3 3 3 3 3 3 3 2 2 2 2 2 2 2 2 2 2 2 2 2 2 2 2 2 2 2 2 2 2 2 2 2
5 4 4 4 4 4 3 3 3 3 3 3 3 3 2 2 2 2 2 2 2 2 2 2 2 2 1 2 2 2 2 2 2 2 2 1 2 1 1 1 2 2 2
4 4 4 4 3 3 3 3 3 2 2 2 2 2 2 2 2 2 2 2 1 1 1 1 1 1 1 1 1 1 1 1 1 1 1 1 1 1 1 1 1 1 1
4 3 3 3 3 3 3 2 2 2 2 2 2 2 2 1 1 1 1 1 1 1 1 1 1 1 1 1 1 1 1 1 1 1 0 0 0 1 1 1 1 1 1
3 3 3 3 3 2 2 2 2 2 2 1 1 1 1 1 1 1 1 1 1 1 0 0 0 0 0 0 0 0 0 0 0 0 0 -0 -0 -0 0 0 0 0 0
3 2 2 2 2 2 2 2 1 1 1 1 1 1 1 1 1 1 1 0 0 0 0 0 -0 -0 -0 -0 -0 -0 -0 -0 -0 -0 -0 -0 -0 -0 -0 -0 -0 -0 -0
2 2 2 1 1 1 1 1 1 1 1 1 1 1 0 0 0 0 0 0 -0 -0 -0 -0 -0 -1 -1 -1 -1 -1 -1 -1 -1 -1 -1 -1 -1 -1 -1 -1 -1 -1 -1
2 1 1 1 1 1 1 0 0 0 0 -0 -0 -0 0 0 -0 -0 -0 -0 -1 -1 -1 -1 -1 -1 -1 -1 -1 -1 -1 -1 -1 -1 -1 -1 -1 -1 -1 -1 -1 -1 -1
1 1 0 0 0 0 -0 -0 -0 -0 -0 -0 -0 -1 -1 -1 -1 -1 -1 -1 -1 -1 -1 -1 -1 -1 -1 -1 -1 -1 -1 -1 -1 -1 -1 -1 -1 -1 -2 -2 -2 -2 -2
Wind_Speed
1 0 1 1 1 1 1 0 1 1 1 1 1 1 1 1 1 0 1 1 1 1 1 1 1 0 1 1 1 1 1 0 2 2 1 1 1 1 2 1 2 2 3
1 1 1 1 0 0 0 1 1 1 1 0 0 1 1 1 1 1 1 2 2 1 2 1 1 1 0 0 0 1 1 1 1 2 2 1 1 1 1 2 1 1 2
1 1 0 0 0 0 1 1 2 1 1 1 0 1 1 1 1 1 1 2 2 2 2 1 1 1 0 0 0 1 2 2 0 1 2 2 1 1 1 2 1 0 1
1 1 1 1 0 0 1 2 2 2 2 2 1 1 1 1 0 1 2 2 3 2 1 1 1 1 1 1 1 1 1 1 1 1 2 2 2 1 1 1 2 2 2
1 1 0 1 1 0 1 2 2 2 2 2 1 1 1 0 1 1 2 3 3 3 2 1 1 1 0 1 1 1 1 1 1 1 1 2 2 1 1 1 2 3 3
1 1 1 1 1 1 1 1 2 2 2 2 1 1 0 1 1 2 2 3 3 3 2 1 1 1 0 1 2 2 2 2 2 1 2 2 3 3 2 2 2 2 2
0 1 0 0 1 1 2 1 2 2 2 2 2 1 0 0 0 1 2 2 3 2 2 2 2 1 1 1 2 2 2 4 4 3 3 4 3 3 2 3 3 3 3
1 1 1 0 1 1 1 1 1 1 2 1 2 1 0 1 1 2 3 2 2 1 2 2 2 2 2 2 1 1 2 3 4 3 3 5 4 4 4 4 4 4 4
1 1 2 1 1 1 1 2 2 2 2 2 1 1 1 1 1 1 1 2 2 1 1 2 2 1 4 3 1 2 2 3 5 6 6 6 6 5 4 2 2 2 3
2 2 2 1 1 1 1 2 2 1 2 1 1 1 1 1 0 1 1 1 1 1 1 1 1 2 4 4 1 1 3 4 4 5 5 6 5 5 5 3 3 3 3
2 2 2 2 1 1 1 1 1 2 2 2 1 1 0 1 1 1 1 1 1 2 1 1 1 3 4 4 4 3 4 4 3 4 4 3 3 3 3 3 4 4 4
2 2 2 2 2 2 1 1 1 2 2 2 1 1 0 0 1 1 2 3 3 2 2 2 2 4 6 6 4 5 5 4 3 3 3 3 3 3 3 4 4 4 5
2 2 2 2 1 1 1 1 1 1 1 2 1 1 1 0 1 2 3 4 5 3 3 4 5 5 6 5 6 6 4 2 2 3 3 4 3 3 2 2 3 3 4
2 2 2 2 2 2 1 1 1 1 1 2 1 2 1 1 1 1 2 3 4 4 4 4 5 5 5 6 6 4 3 3 3 3 3 3 2 2 2 2 2 2 2
2 2 1 1 1 1 1 1 1 1 1 1 1 1 1 1 2 3 2 3 3 3 4 3 3 3 3 3 3 3 3 2 2 2 3 2 2 2 2 2 2 2 2
2 2 1 1 1 1 1 2 3 2 2 1 1 2 2 2 3 4 5 6 7 6 4 3 3 3 3 3 3 3 3 3 3 3 3 3 3 2 2 2 2 2 2
2 2 1 1 1 2 2 2 2 3 2 3 3 3 3 4 4 5 6 6 7 5 3 4 4 4 3 3 3 3 3 3 3 3 3 3 3 2 2 2 2 2 2
1 1 2 1 1 2 2 2 2 2 2 2 3 3 3 4 5 6 6 4 4 3 3 3 3 3 3 3 3 3 2 2 2 2 3 3 2 2 2 3 3 3 3
1 1 1 1 2 2 3 3 2 2 2 2 2 2 2 3 5 6 4 3 3 3 3 3 3 3 3 2 2 2 2 2 3 3 3 3 3 3 3 3 3 4 3
1 2 2 2 2 2 2 2 2 2 2 2 2 2 1 1 2 3 3 3 3 3 3 3 3 3 3 3 3 3 3 3 3 3 3 3 3 3 4 4 4 3 3
1 2 3 3 2 2 2 2 2 2 2 2 2 2 2 2 3 3 3 3 3 3 3 3 3 3 3 2 3 3 4 3 3 3 3 3 3 3 3 3 3 3 3
1 1 2 2 2 2 2 2 2 2 2 3 2 2 3 2 3 3 3 3 3 3 3 3 3 3 3 2 2 3 4 4 3 3 3 3 3 3 3 3 3 3 3
1 1 1 2 1 2 2 2 2 2 2 3 3 2 2 2 3 3 3 3 3 3 3 2 3 3 3 3 3 3 4 4 3 3 3 3 3 3 3 3 4 4 4
1 1 1 2 2 2 2 2 2 2 3 3 3 2 2 3 3 3 3 3 2 3 3 3 3 4 5 4 4 4 5 4 4 3 4 4 4 4 4 4 4 5 5
1 1 1 1 2 2 2 2 2 3 3 3 3 3 3 3 3 3 3 3 3 3 4 4 4 4 5 5 4 5 5 6 5 5 4 4 5 5 5 5 5 5 5
1 2 2 1 1 2 2 3 3 3 3 3 3 3 3 3 3 3 3 3 3 4 4 4 5 5 6 5 5 6 6 6 7 7 6 5 5 5 5 5 6 6 6
Wind_Direction
178 167 98 81 50 58 54 289 292 320 336 339 342 16 15 348 346 1 306 303 285 292 304 251 242 268 5 336 337 343 309 219 273 289 309 312 337 335 325 267 221 190 187
172 172 124 113 71 42 295 280 274 262 257 275 355 18 35 4 345 4 328 321 285 272 286 301 288 316 188 263 345 315 294 288 247 288 304 305 282 283 288 290 240 204 193
151 169 172 179 177 321 309 309 315 321 308 295 152 80 27 332 334 343 318 301 289 271 249 257 281 342 347 12 328 302 299 319 285 285 295 297 287 309 340 321 304 229 224
155 194 215 216 195 300 312 301 303 306 299 275 213 177 235 264 356 344 329 314 305 292 248 199 205 189 206 231 275 283 295 307 295 290 289 299 298 301 5 335 311 300 276
178 198 252 3 13 336 305 294 299 302 298 300 279 251 244 211 16 4 327 319 306 302 297 238 188 157 130 167 240 257 273 275 274 276 280 316 314 319 303 291 300 294 279
184 140 73 32 355 332 298 305 319 316 313 318 307 277 290 1 31 14 347 308 303 306 310 305 260 165 320 265 248 257 254 249 259 262 276 272 290 292 285 297 298 306 293
136 130 95 349 328 312 313 317 311 306 298 294 296 292 169 101 42 347 339 301 292 309 322 316 314 336 24 303 282 268 278 273 259 241 244 253 259 267 278 277 270 265 266
44 11 13 357 328 318 313 298 293 295 281 274 284 303 319 289 287 318 323 304 300 325 319 313 316 335 358 353 324 309 288 294 282 275 246 251 257 247 240 250 258 276 282
10 347 339 333 318 305 293 288 289 290 281 262 258 270 243 240 250 300 323 276 287 297 315 350 353 2 342 345 321 288 295 298 306 309 307 299 287 282 273 274 276 264 275
352 331 329 347 347 308 282 292 303 287 274 275 277 266 256 208 288 345 325 272 290 304 319 356 12 2 348 341 292 264 278 286 300 308 312 310 306 290 275 240 232 242 259
356 351 340 353 346 338 338 352 331 314 300 289 289 292 285 130 95 14 332 294 288 299 301 314 331 339 323 313 298 263 269 285 281 282 286 288 294 293 281 264 238 231 233
6 357 346 345 336 356 21 351 324 320 305 285 279 299 320 99 85 339 323 310 317 293 286 286 293 309 308 300 290 286 284 287 276 280 281 279 279 280 281 282 271 258 245
353 348 343 346 343 352 357 348 341 340 324 311 296 279 286 1 20 355 316 311 318 308 294 292 289 298 301 291 281 284 284 267 261 266 266 266 267 272 285 298 301 292 287
325 325 334 341 341 354 2 11 358 347 336 327 327 318 318 12 4 357 333 323 320 317 310 302 300 295 285 280 282 275 259 253 248 249 259 267 273 278 278 284 285 280 279
310 313 317 341 348 350 358 344 311 272 251 272 281 295 319 312 315 329 328 319 316 304 312 298 285 281 276 281 281 269 259 261 264 264 263 266 269 265 275 292 290 284 268
310 315 332 355 350 318 299 322 337 303 307 319 294 285 298 299 304 307 309 308 309 311 308 287 281 270 263 268 275 275 265 262 262 262 264 261 259 258 270 290 292 284 275
321 327 332 341 327 306 285 277 303 325 308 295 289 289 281 282 287 297 302 301 297 295 280 271 275 279 276 275 275 274 271 273 275 268 265 269 268 269 266 270 269 275 278
315 308 312 301 289 288 276 274 270 280 302 306 288 267 269 277 284 292 300 308 297 280 264 265 270 274 279 281 278 275 275 279 277 277 274 272 269 270 272 270 268 267 271
273 279 303 299 278 274 268 264 268 273 278 290 303 280 263 282 288 293 299 291 283 281 275 271 274 274 274 277 283 285 277 268 268 261 263 263 261 257 257 258 260 274 273
270 280 288 274 266 272 275 273 271 268 276 283 285 283 285 304 294 288 275 273 276 282 286 284 284 282 281 278 281 283 279 274 276 268 263 260 260 260 254 255 252 256 261
269 258 272 277 266 275 280 282 282 277 277 282 281 277 288 270 269 274 273 274 279 281 281 283 286 289 286 284 282 281 283 280 274 270 268 264 256 262 270 264 258 257 261
293 281 281 284 286 285 282 276 278 277 278 282 280 274 265 254 262 273 272 272 272 279 280 281 279 273 268 276 279 284 282 282 281 276 271 267 264 268 267 268 268 261 256
294 303 308 301 287 288 291 288 290 292 291 290 286 288 289 284 282 283 284 282 285 286 285 282 284 286 287 282 279 274 274 278 278 277 275 270 265 263 262 262 266 266 259
317 315 304 295 294 290 294 305 310 309 301 293 292 293 291 292 292 290 291 300 300 293 288 285 281 280 284 287 288 287 287 290 295 291 284 275 269 262 258 256 258 261 262
339 332 316 308 309 313 309 305 301 303 308 310 309 307 302 298 300 299 298 300 298 295 300 302 297 291 285 287 289 290 291 294 298 298 289 275 266 265 261 258 255 256 257
334 330 320 318 313 306 301 303 306 307 305 308 309 306 305 304 303 302 304 304 305 305 305 307 302 302 299 297 293 292 294 292 289 285 279 269 261 259 260 259 258 253 256
Height
1522 1522 1522 1522 1521 1521 1521 1520 1520 1519 1519 1519 1518 1518 1518 1518 1518 1517 1517 1517 1518 1518 1518 1518 1518 1518 1518 1518 1518 1518 1518 1518 1517 1517 1517 1516 1516 1515 1515 1514 1514 1513 1512
1519 1520 1520 1520 1519 1519 1519 1518 1518 1517 1517 1516 1516 1516 1515 1515 1515 1515 1514 1515 1515 1515 1515 1516 1516 1516 1515 1515 1515 1515 1515 1515 1515 1514 1514 1514 1514 1513 1513 1512 1512 1511 1511
1517 1517 1517 1517 1517 1516 1516 1515 1515 1514 1514 1514 1514 1513 1513 1513 1512 1512 1512 1512 1512 1512 1513 1513 1513 1513 1512 1512 1513 1512 1512 1512 1512 1512 1511 1511 1511 1511 1510 1510 1509 1509 1509
1515 1515 1515 1515 1514 1514 1513 1513 1512 1512 1511 1511 1511 1510 1510 1510 1509 1509 1509 1509 1509 1510 1510 1510 1510 1510 1510 1510 1510 1510 1510 1509 1509 1509 1508 1508 1508 1507 1507 1506 1506 1506 1506
1513 1513 1512 1512 1511 1511 1510 1510 1509 1509 1508 1508 1508 1507 1507 1507 1507 1506 1506 1506 1506 1507 1507 1507 1507 1507 1507 1507 1507 1507 1507 1506 1506 1506 1505 1505 1505 1504 1504 1504 1503 1503 1503
1510 1510 1509 1509 1508 1507 1507 1506 1506 1505 1505 1505 1504 1504 1504 1504 1504 1504 1504 1503 1503 1503 1503 1503 1504 1504 1504 1504 1503 1504 1504 1503 1503 1503 1502 1502 1502 1502 1501 1501 1501 1500 1499
1507 1507 1506 1506 1505 1504 1504 1503 1503 1502 1502 1502 1501 1501 1501 1501 1501 1501 1500 1500 1500 1500 1500 1500 1500 1500 1500 1500 1500 1500 1500 1500 1500 1500 1499 1499 1499 1499 1498 1497 1497 1497 1496
1504 1504 1503 1503 1502 1501 1500 1500 1499 1499 1499 1499 1498 1498 1498 1498 1497 1497 1497 1497 1497 1497 1497 1497 1497 1497 1497 1497 1496 1496 1496 1496 1496 1496 1496 1496 1496 1495 1495 1494 1494 1493 1493
1502 1501 1500 1500 1499 1498 1497 1497 1496 1496 1496 1496 1495 1495 1494 1494 1494 1494 1494 1493 1493 1493 1493 1493 1493 1493 1493 1493 1493 1492 1492 1492 1492 1492 1492 1492 1492 1491 1491 1491 1490 1490 1488
1500 1499 1498 1497 1496 1495 1494 1494 1493 1493 1493 1492 1492 1492 1491 1491 1491 1491 1491 1490 1490 1490 1489 1489 1489 1489 1489 1489 1489 1488 1487 1487 1488 1487 1487 1487 1487 1487 1487 1487 1486 1486 1485
1498 1497 1496 1495 1493 1492 1492 1491 1491 1490 1490 1489 1489 1489 1489 1488 1488 1488 1488 1487 1487 1486 1486 1486 1485 1485 1485 1485 1485 1484 1484 1484 1483 1483 1483 1483 1483 1482 1482 1482 1482 1482 1481
1495 1494 1493 1492 1491 1490 1489 1489 1488 1487 1487 1486 1486 1486 1485 1485 1485 1484 1484 1484 1484 1483 1483 1482 1482 1482 1482 1481 1481 1481 1480 1480 1479 1479 1479 1478 1478 1478 1478 1478 1478 1478 1478
1492 1491 1490 1490 1489 1488 1487 1486 1485 1484 1484 1483 1483 1483 1482 1482 1482 1481 1481 1481 1480 1480 1479 1479 1479 1478 1477 1477 1477 1477 1477 1476 1475 1474 1474 1474 1474 1474 1474 1474 1474 1473 1473
1490 1489 1488 1487 1486 1486 1485 1484 1483 1482 1481 1480 1480 1479 1479 1479 1478 1477 1477 1477 1476 1476 1475 1475 1475 1474 1473 1473 1473 1473 1472 1472 1471 1471 1471 1471 1471 1470 1470 1469 1469 1469 1468
1487 1487 1486 1485 1484 1483 1482 1482 1480 1480 1479 1478 1477 1476 1476 1475 1475 1474 1474 1473 1472 1472 1471 1471 1470 1470 1469 1469 1469 1469 1468 1468 1468 1467 1467 1467 1466 1466 1466 1465 1465 1465 1465
1484 1484 1483 1482 1481 1481 1480 1479 1478 1477 1476 1476 1475 1474 1473 1473 1472 1471 1470 1470 1469 1469 1468 1467 1466 1466 1465 1465 1465 1464 1464 1464 1464 1464 1463 1463 1463 1462 1462 1462 1462 1462 1461
1482 1481 1480 1479 1479 1478 1477 1476 1475 1474 1474 1473 1472 1472 1471 1470 1469 1468 1467 1466 1465 1465 1464 1463 1463 1462 1462 1461 1461 1460 1460 1460 1460 1460 1459 1459 1459 1459 1458 1458 1458 1458 1458
1479 1478 1477 1476 1476 1475 1474 1473 1472 1471 1471 1470 1470 1469 1468 1467 1466 1465 1464 1463 1462 1461 1460 1459 1459 1459 1458 1457 1457 1456 1456 1456 1455 1455 1455 1455 1455 1454 1454 1454 1454 1454 1454
1476 1475 1474 1474 1473 1472 1472 1471 1470 1469 1469 1468 1467 1466 1466 1465 1463 1462 1461 1459 1458 1457 1456 1456 1455 1455 1454 1454 1453 1452 1452 1451 1451 1451 1450 1450 1450 1450 1450 1450 1450 1450 1450
1472 1472 1471 1470 1470 1469 1469 1468 1467 1466 1466 1465 1464 1463 1462 1461 1460 1459 1458 1457 1455 1454 1453 1452 1451 1451 1450 1449 1449 1448 1448 1447 1447 1446 1446 1445 1445 1445 1445 1445 1445 1445 1446
1469 1468 1468 1467 1467 1466 1465 1465 1464 1463 1463 1462 1461 1461 1460 1458 1457 1456 1455 1454 1452 1451 1450 1449 1448 1447 1446 1445 1444 1444 1443 1442 1442 1441 1441 1441 1441 1441 1440 1441 1441 1441 1442
1466 1465 1464 1464 1463 1463 1462 1462 1461 1460 1460 1459 1458 1458 1457 1456 1454 1453 1452 1451 1449 1448 1447 1445 1444 1443 1442 1441 1440 1440 1439 1438 1437 1437 1436 1436 1436 1436 1436 1436 1436 1437 1437
1463 1462 1462 1461 1460 1460 1459 1459 1458 1458 1457 1456 1455 1454 1453 1452 1451 1450 1449 1447 1446 1444 1443 1442 1440 1439 1438 1437 1436 1436 1435 1434 1433 1432 1432 1431 1431 1431 1431 1431 1431 1432 1432
1460 1460 1459 1458 1458 1457 1456 1456 1455 1455 1454 1453 1452 1451 1450 1449 1448 1446 1445 1444 1442 1441 1440 1438 1436 1435 1434 1433 1432 1431 1430 1429 1428 1428 1427 1426 1426 1426 1426 1426 1426 1427 1427
1457 1457 1456 1456 1455 1454 1453 1453 1452 1452 1451 1450 1449 1448 1447 1445 1444 1443 1441 1440 1438 1437 1435 1434 1432 1431 1430 1428 1427 1426 1425 1424 1423 1423 1422 1422 1421 1421 1421 1421 1421 1422 1422
1455 1454 1454 1453 1452 1451 1451 1450 1449 1449 1448 1447 1446 1445 1443 1442 1440 1439 1437 1436 1434 1432 1431 1429 1428 1426 1425 1424 1422 1421 1420 1419 1418 1417 1417 1416 1415 1415 1415 1415 1416 1416 1417